Tracking 30692 objects as of 16-Jun-2025
HD Live streaming from Space Station
objects crossing your sky now

COSMOS 2302

Track COSMOS 2302 now!
10-day predictions
COSMOS 2302 is classified as:


NORAD ID: 23444
Int'l Code: 1994-086D
Perigee: 1,420.4 km
Apogee: 1,429.4 km
Inclination: 82.6 °
Period: 114.2 minutes
Semi major axis: 7795 km
RCS: 1.0234 m2 (large)
Launch date: December 26, 1994
Source: Commonwealth of Independent States (former USSR) (CIS)
Launch site: PLESETSK MISSILE AND SPACE COMPLEX (PKMTR)
Your satellite tracking list
Your tracking list is empty




NASA's NSSDC Master Catalog

Two Line Element Set (TLE):
1 23444U 94086D   25166.84528838  .00000010  00000-0 -30561-6 0  9993
2 23444  82.5648 200.9921 0005763 295.6786 238.0540 12.61261727402631
Source of the keplerian elements: AFSPC